Change the Weather History Date:

Monday, July 29, 2013

  Actual Average (PASK) Record (PASK)
Temperature  
Mean Temperature 56 °F -  
Max Temperature 55 °F 58 °F 71 °F (1997)
Min Temperature 51 °F 48 °F 42 °F (2003)
Degree Days  
Heating Degree Days 10    
Growing Degree Days 6 (Base 50)    
Moisture  
Dew Point 52 °F    
Average Humidity 87    
Maximum Humidity 100    
Minimum Humidity 72    
Precipitation  
Precipitation 0.00 in - - ()
Sea Level Pressure  
Sea Level Pressure 30.24 in    
Wind  
Wind Speed 5 mph (WSW)    
Max Wind Speed 9 mph    
Max Gust Speed -    
Visibility 10 miles    
Events      
Averages and records for this station are not official NWS values.
T = Trace of Precipitation, MM = Missing Value Source: NWS Daily Summary

Daily Weather History Graph

Daily Weather History Graph

Search for Another Location

Airport or City:

Trip Planner

Search our weather history database for the weather conditions in past years. The results will help you decide how hot, cold, wet, or windy it might be!

Date:

Astronomy

Jul. 29, 2013 Rise Set
Actual Time 5:02 AM AKDT 12:29 AM AKDT
Civil Twilight 3:20 AM AKDT 2:15 AM AKDT
Nautical Twilight Sun does not rise Sun does not rise
Astronomical Twilight Sun does not rise Sun does not rise
Moon No Moon Rise 5:21 PM AKDT (7/29)
Length of Visible Light 22h 55m
Length of Day
19h 27m
Waning Gibbous, 49% of the Moon is Illuminated
Jul 29
Waning Gibbous
Aug 6
New
Aug 14
First Quarter
Aug 20
Full
Aug 28
Last Quarter

Hourly Weather History & Observations

Time (AKDT) Temp. Dew Point Humidity Pressure Visibility Wind Dir Wind Speed Gust Speed Precip Events Conditions
12:01 AM 57.0 °F 52.0 °F 83% 30.27 in 10.0 mi West 9.2 mph - N/A   Overcast
1:01 AM 55.9 °F 51.1 °F 84% 30.27 in 10.0 mi West 4.6 mph - N/A   Overcast
2:01 AM 55.0 °F 51.1 °F 86% 30.27 in 10.0 mi West 3.5 mph - N/A   Overcast
2:14 AM 55.4 °F 51.8 °F 88% 30.16 in 10.0 mi West 4.6 mph - N/A   Overcast
2:41 AM 53.6 °F 51.8 °F 94% 30.16 in 10.0 mi West 4.6 mph - N/A   Overcast
2:50 AM 53.6 °F 51.8 °F 94% 30.16 in 10.0 mi West 6.9 mph - N/A   Overcast
2:58 AM 53.6 °F 51.8 °F 94% 30.16 in 10.0 mi WSW 4.6 mph - N/A   Overcast
3:01 AM 54.0 °F 51.1 °F 90% 30.28 in 10.0 mi WSW 4.6 mph - N/A   Overcast
3:57 AM 53.6 °F 51.8 °F 94% 30.16 in 10.0 mi West 4.6 mph - N/A   Overcast
4:01 AM 53.1 °F 51.1 °F 93% 30.28 in 9.0 mi West 4.6 mph - N/A   Overcast
4:43 AM 53.6 °F 51.8 °F 94% 30.17 in 6.0 mi Calm Calm - N/A   Overcast
5:01 AM 52.0 °F 52.0 °F 100% 30.28 in 6.0 mi Calm Calm - N/A   Overcast
5:24 AM 51.8 °F 51.8 °F 100% 30.16 in 8.0 mi Calm Calm - N/A   Overcast
5:42 AM 53.6 °F 51.8 °F 94% 30.16 in 4.0 mi Calm Calm - N/A   Overcast
6:01 AM 53.1 °F 52.0 °F 96% 30.28 in 9.0 mi Calm Calm - N/A   Overcast
6:16 AM 53.6 °F 51.8 °F 94% 30.16 in 10.0 mi Calm Calm - N/A   Overcast
7:01 AM 53.6 °F 51.8 °F 94% 30.16 in 10.0 mi WSW 5.8 mph - N/A   Overcast
7:10 AM 53.6 °F 51.8 °F 94% 30.16 in 10.0 mi WSW 5.8 mph - N/A   Overcast
7:21 AM 53.6 °F 51.8 °F 94% 30.17 in 10.0 mi West 5.8 mph - N/A   Overcast
7:39 AM 53.6 °F 51.8 °F 94% 30.17 in 10.0 mi West 8.1 mph - N/A   Overcast
7:49 AM 53.6 °F 51.8 °F 94% 30.17 in 10.0 mi West 5.8 mph - N/A   Overcast
8:01 AM 53.6 °F 51.8 °F 94% 30.17 in 10.0 mi West 3.5 mph - N/A   Overcast
8:54 AM 55.4 °F 53.6 °F 94% 30.18 in 10.0 mi SW 6.9 mph - N/A   Overcast
9:01 AM 55.0 °F 53.1 °F 93% 30.30 in 10.0 mi WSW 4.6 mph - N/A   Overcast
10:01 AM 55.9 °F 52.0 °F 87% 30.31 in 10.0 mi WSW 9.2 mph - N/A   Overcast
10:14 AM 55.4 °F 51.8 °F 88% 30.19 in 10.0 mi West 9.2 mph - N/A   Overcast
11:01 AM 55.9 °F 53.1 °F 90% 30.32 in 10.0 mi West 6.9 mph - N/A   Overcast
12:01 PM 55.9 °F 52.0 °F 87% 30.33 in 10.0 mi WSW 6.9 mph - N/A   Overcast
12:23 PM 57.2 °F 51.8 °F 82% 30.21 in 10.0 mi WSW 8.1 mph - N/A   Overcast
1:01 PM 57.0 °F 51.1 °F 81% 30.33 in 10.0 mi WSW 8.1 mph - N/A   Overcast
1:47 PM 57.2 °F 51.8 °F 82% 30.22 in 10.0 mi WSW 5.8 mph - N/A   Overcast
2:01 PM 57.9 °F 50.0 °F 75% 30.34 in 10.0 mi WSW 8.1 mph - N/A   Overcast
2:56 PM 59.0 °F 51.8 °F 77% 30.22 in 10.0 mi SW 5.8 mph - N/A   Overcast
3:01 PM 59.0 °F 51.1 °F 75% 30.34 in 10.0 mi WSW 8.1 mph - N/A   Overcast
3:12 PM 59.0 °F 51.8 °F 77% 30.22 in 10.0 mi SW 8.1 mph - N/A   Overcast
4:01 PM 57.9 °F 52.0 °F 81% 30.34 in 10.0 mi WSW 9.2 mph - N/A   Overcast
4:28 PM 59.0 °F 51.8 °F 77% 30.22 in 10.0 mi SW 6.9 mph - N/A   Overcast
5:01 PM 57.9 °F 52.0 °F 81% 30.34 in 10.0 mi SSW 5.8 mph - N/A   Overcast
5:22 PM 59.0 °F 51.8 °F 77% 30.22 in 10.0 mi SW 9.2 mph - N/A   Overcast
6:01 PM 60.1 °F 51.1 °F 72% 30.33 in 10.0 mi WSW 6.9 mph - N/A   Overcast
7:01 PM 60.1 °F 52.0 °F 75% 30.33 in 10.0 mi West 9.2 mph - N/A   Overcast
8:01 PM 60.1 °F 51.1 °F 72% 30.33 in 10.0 mi WSW 5.8 mph - N/A   Overcast
9:01 PM 59.0 °F 51.1 °F 75% 30.33 in 10.0 mi West 5.8 mph - N/A   Overcast
10:01 PM 59.0 °F 51.1 °F 75% 30.32 in 10.0 mi Calm Calm - N/A   Overcast
10:33 PM 57.2 °F 51.8 °F 82% 30.20 in 9.0 mi Calm Calm - N/A   Overcast
11:01 PM 57.9 °F 52.0 °F 81% 30.33 in 10.0 mi WSW 6.9 mph - N/A   Overcast
11:29 PM 57.2 °F 53.6 °F 88% 30.21 in 10.0 mi WSW 5.8 mph - N/A   Overcast